Location: Cerroniocc
(13.7547°S, 72.0222°W)
Time: 20:01:16
(UTC+00:00)

NOSS 3-3 (C) - Pass Details

Date: 05 July 2020
Orbit: 824 x 1388 km, 63.4° (Epoch: 03 August)

Event Time Altitude Azimuth Distance (km) Brightness Sun altitude
Rises 23:41:45 0° 194° (SSW) 3,545 6.9 -16.3°
Reaches altitude 10° 23:44:30 10° 187° (S) 2,540 6.1 -17.0°
Maximum altitude 23:49:56 42° 117° (ESE) 1,175 4.0 -18.2°
Drops below altitude 10° 23:55:07 10° 46° (NE) 2,414 5.8 -19.4°
Sets 23:57:38 0° 39° (NE) 3,350 6.6 -20.0°
